STARLINK-5433, 54793

Orbit data source: Space-Track

STARLINK-5433, 54793 is a payload satellite in LEO that was launched on Sat, 17 Dec 2022 UTC via an FALCON 9 launch vehicle from the Air Force Eastern Test Range (AFETR). Payload-class satellites include a variety of spacecraft equipped with specific instruments for various scientific and technological missions. These include communications satellites like Starlink; space stations such as the ISS; scientific satellites like the Hubble; Earth observation satellites from companies like Planet Labs, Umbra, and HawkEye 360; GPS; miniature CubeSats for education and research; and military/defense satellites.

STARLINK-5433 will be above the set Earth location in 1 hour
Identifier
54793, 2022-175AM
Orbit
LEO
Last TLE update
1 day ago
Origin
Manufacturer
SpaceX/Seattle
Mission
Operational Commercial Communications
Bus & Motor
STARLINK, Unknown motor
Mass
305 kg wet, ~290 kg dry
Launch date (UTC)
2022-12-17 (2 years ago)
Launch vehicle
FALCON 9
Launch site
Air Force Eastern Test Range (AFETR)
Object type
Payload
Rocket body
Debris
Shape & HBR
Box + 1 Pan, 8.86 m
Radar Cross Section
13.562 m², Large (>1 m²)

Expand to show TLE details & history

TLE from 1 day ago
0 STARLINK-5433
1 54793U 22175AM  25149.21170836 -.00002574  00000-0 -14361-3 0  9992
2 54793  53.2162 216.2001 0000217 115.6817 244.4198 15.08867899137329
Epoch: 2025-05-29T05:04Z
TLE epoch observation values (Epoch: 2025-05-29T05:04:51.602Z)
Latitude
0.00002°
Longitude
-106.99894°
Altitude
540.62 km
Speed
7.593 km/s
True Right ascension
14h 24m 48s
True Declination
0° 00' 00"
Sunlit
Object was in full shadow at epoch
Visualization orbit readout
Latitude
28.61987°
Longitude
44.18635°
Altitude
541.023 km
Speed
7.596 km/s
Apparent Right ascension
02h 20m 07s
Apparent Declination
-4° 42' 60"
Sunlit
Object is in daylight
Visualization observer readout
Local Sidereal Time
16:40:42
Azimuth
51.29° ENE
Elevation
-42.67°
Doppler factor
1
Orbital elements
Apogee altitude
540.053 km
Perigee altitude
539.753 km
Semi-major axis
6,918.04 km
Eccentricity
0.00002
Inclination
53.2162°
RAAN
216.2001°
Arg. of periapsis
115.6817°
True anomaly
Unknown
Mean anomaly
244.4198°
Eccentric anomaly
Unknown
Mean motion
3.77197 °/min
Orbital period
95.44 mins
BSTAR
-0.00014361
Loading maneuver chart data...
Loading SW <> Apogee altitude chart data...
Loading historical data...
Loading historical data...
Loading historical data...
Loading historical data...
Loading historical data...
Loading historical data...
Loading historical data...

STARLINK-5433 Visibility forecast

Observer location: undefined°, undefined°

Span
Click to sort rows by Start time (UTC) header in descending order
Start Az.
Max El. time (UTC)
Max El. Az.
Max El.
End time (UTC)
End Az.
6 mins2025-05-30 08:20:57.939Z280.816° WNW2025-05-30 08:23:57.939Z339.997° N23.988°2025-05-30 08:26:57.939Z30.431° NE
5 mins2025-05-30 13:22:57.939Z329.282° NNW2025-05-30 13:24:57.939Z35.011° NE38.793°2025-05-30 13:27:57.939Z109.805° ESE
4 mins2025-05-30 15:02:57.939Z253.697° W2025-05-30 15:03:57.939Z233.17° WSW19.55°2025-05-30 15:06:57.939Z183.753° SSW
6 mins2025-05-31 06:32:57.939Z218.405° SW2025-05-31 06:34:57.939Z186.703° SSW42.103°2025-05-31 06:38:57.939Z54.042° ENE
|